Time,TemperatureF,DewpointF,PressureIn,WindDirection,WindDirectionDegrees,WindSpeedMPH,WindSpeedGustMPH,Humidity,HourlyPrecipIn,Conditions,Clouds,dailyrainin,SoftwareType,DateUTC
2013-06-20 00:05:00,74.7,14.6,29.67,North,0,0.0,0.0,1,0.00,,,0.00,WUHU216HW,2013-06-20 04:05:00,
2013-06-20 00:35:00,73.6,13.8,29.68,North,0,0.0,0.0,1,0.00,,,0.00,WUHU216HW,2013-06-20 04:35:00,
2013-06-20 01:05:00,72.9,13.2,29.68,North,0,0.0,0.0,1,0.00,,,0.00,WUHU216HW,2013-06-20 05:05:00,
2013-06-20 01:35:00,72.7,13.2,29.68,North,0,0.0,0.0,1,0.00,,,0.00,WUHU216HW,2013-06-20 05:35:00,
2013-06-20 02:05:00,73.3,13.5,29.67,North,0,0.0,0.0,1,0.00,,,0.00,WUHU216HW,2013-06-20 06:05:00,
2013-06-20 02:35:00,73.1,13.4,29.66,North,0,0.0,0.0,1,0.00,,,0.00,WUHU216HW,2013-06-20 06:35:00,
2013-06-20 03:05:00,73.1,13.4,29.65,North,0,0.0,0.0,1,0.00,,,0.00,WUHU216HW,2013-06-20 07:05:00,
2013-06-20 03:35:00,73.1,13.4,29.65,North,0,0.0,0.0,1,0.00,,,0.00,WUHU216HW,2013-06-20 07:35:00,
2013-06-20 04:05:00,73.3,13.5,29.64,North,0,0.0,0.0,1,0.00,,,0.00,WUHU216HW,2013-06-20 08:05:00,
2013-06-20 04:35:00,73.1,13.4,29.64,North,0,0.0,0.0,1,0.00,,,0.00,WUHU216HW,2013-06-20 08:35:00,
2013-06-20 05:05:00,72.9,13.2,29.65,North,0,0.0,0.0,1,0.00,,,0.00,WUHU216HW,2013-06-20 09:05:00,
2013-06-20 05:35:00,72.9,13.2,29.65,North,0,0.0,0.0,1,0.00,,,0.00,WUHU216HW,2013-06-20 09:35:00,
2013-06-20 06:05:00,72.9,13.2,29.65,North,0,0.0,0.0,1,0.00,,,0.00,WUHU216HW,2013-06-20 10:05:00,
2013-06-20 06:35:00,72.7,13.2,29.67,North,0,0.0,0.0,1,0.00,,,0.00,WUHU216HW,2013-06-20 10:35:00,
2013-06-20 07:05:00,72.5,13.0,29.68,North,0,0.0,0.0,1,0.00,,,0.00,WUHU216HW,2013-06-20 11:05:00,
2013-06-20 07:35:00,73.3,13.5,29.69,North,0,0.0,0.0,1,0.00,,,0.00,WUHU216HW,2013-06-20 11:35:00,
2013-06-20 08:05:00,74.5,14.4,29.69,North,0,0.0,0.0,1,0.00,,,0.00,WUHU216HW,2013-06-20 12:05:00,
2013-06-20 08:35:00,78.1,17.1,29.70,North,0,0.0,0.0,1,0.00,,,0.00,WUHU216HW,2013-06-20 12:35:00,
2013-06-20 09:30:00,84.8,22.2,29.72,North,0,0.0,0.0,1,0.00,,,0.00,WUHU216HW,2013-06-20 13:30:00,
2013-06-20 09:35:00,84.8,22.2,29.72,North,0,0.0,0.0,1,0.00,,,0.00,WUHU216HW,2013-06-20 13:35:00,
2013-06-20 10:05:00,90.0,26.2,29.71,North,0,0.0,0.0,1,0.00,,,0.00,WUHU216HW,2013-06-20 14:05:00,
2013-06-20 10:35:00,90.9,26.9,29.71,North,0,0.0,0.0,1,0.00,,,0.00,WUHU216HW,2013-06-20 14:35:00,
2013-06-20 11:05:00,88.9,25.4,29.71,North,0,0.0,0.0,1,0.00,,,0.00,WUHU216HW,2013-06-20 15:05:00,
2013-06-20 11:34:00,88.2,24.9,29.71,North,0,0.0,0.0,1,0.00,,,0.00,WUHU216HW,2013-06-20 15:34:00,
2013-06-20 12:04:00,88.2,24.9,29.71,North,0,0.0,0.0,1,0.00,,,0.00,WUHU216HW,2013-06-20 16:04:00,
2013-06-20 12:34:00,89.1,25.6,29.71,North,0,0.0,0.0,1,0.00,,,0.00,WUHU216HW,2013-06-20 16:34:00,
2013-06-20 13:04:00,90.0,26.2,29.70,North,0,0.0,0.0,1,0.00,,,0.00,WUHU216HW,2013-06-20 17:04:00,
2013-06-20 13:34:00,90.2,26.4,29.69,North,0,0.0,0.0,1,0.00,,,0.00,WUHU216HW,2013-06-20 17:34:00,
2013-06-20 14:04:00,85.7,23.0,29.69,North,0,0.0,0.0,1,0.04,,,0.00,WUHU216HW,2013-06-20 18:04:00,
2013-06-20 14:34:00,84.1,21.7,29.67,North,0,0.0,0.0,1,0.04,,,0.05,WUHU216HW,2013-06-20 18:34:00,
2013-06-20 15:04:00,85.0,22.3,29.67,North,0,0.0,0.0,1,0.00,,,0.05,WUHU216HW,2013-06-20 19:04:00,
2013-06-20 15:34:00,87.8,24.7,29.66,North,0,0.0,0.0,1,0.00,,,0.05,WUHU216HW,2013-06-20 19:34:00,
2013-06-20 16:04:00,88.2,24.9,29.66,North,0,0.0,0.0,1,0.00,,,0.05,WUHU216HW,2013-06-20 20:04:00,
2013-06-20 16:34:00,87.1,24.1,29.65,North,0,0.0,0.0,1,0.00,,,0.05,WUHU216HW,2013-06-20 20:34:00,
2013-06-20 17:04:00,86.8,23.8,29.67,North,0,0.0,0.0,1,0.00,,,0.05,WUHU216HW,2013-06-20 21:04:00,
2013-06-20 17:34:00,85.7,23.0,29.67,North,0,0.0,0.0,1,0.00,,,0.05,WUHU216HW,2013-06-20 21:34:00,
2013-06-20 18:04:00,84.4,22.0,29.69,North,0,0.0,0.0,1,0.00,,,0.05,WUHU216HW,2013-06-20 22:04:00,
2013-06-20 18:34:00,82.4,20.5,29.71,North,0,0.0,0.0,1,0.00,,,0.05,WUHU216HW,2013-06-20 22:34:00,
2013-06-20 19:04:00,79.2,17.9,29.72,North,0,0.0,0.0,1,0.09,,,0.05,WUHU216HW,2013-06-20 23:04:00,
2013-06-20 19:34:00,76.0,15.5,29.72,North,0,0.0,0.0,1,0.26,,,0.14,WUHU216HW,2013-06-20 23:34:00,
2013-06-20 20:04:00,74.3,14.3,29.72,North,0,0.0,0.0,1,0.26,,,0.31,WUHU216HW,2013-06-21 00:04:00,
2013-06-20 20:35:00,73.8,14.0,29.70,North,0,0.0,0.0,1,0.09,,,0.39,WUHU216HW,2013-06-21 00:35:00,
2013-06-20 21:04:00,73.1,13.4,29.69,North,0,0.0,0.0,1,0.02,,,0.39,WUHU216HW,2013-06-21 01:04:00,
2013-06-20 21:34:00,72.7,13.2,29.69,North,0,0.0,0.0,1,0.02,,,0.42,WUHU216HW,2013-06-21 01:34:00,
2013-06-20 22:04:00,72.7,13.2,29.69,North,0,0.0,0.0,1,0.00,,,0.42,WUHU216HW,2013-06-21 02:04:00,
2013-06-20 22:34:00,73.3,13.5,29.69,North,0,0.0,0.0,1,0.00,,,0.42,WUHU216HW,2013-06-21 02:34:00,
2013-06-20 23:04:00,72.7,13.2,29.71,North,0,0.0,0.0,1,0.00,,,0.42,WUHU216HW,2013-06-21 03:04:00,
2013-06-20 23:34:00,72.5,13.0,29.72,North,0,0.0,0.0,1,0.00,,,0.42,WUHU216HW,2013-06-21 03:34:00,